Location: Be?chatów
(51.3665°N, 19.3745°E)
Time: 17:42:53
(UTC+00:00)

ISS - Pass Details

Date: 19 May 2025
Orbit: 415 x 417 km, 51.6° (Epoch: 21 June)

Event Time Altitude Azimuth Distance (km) Brightness Sun altitude
Rises 21:48:36 0° 281° (WNW) 2,360 0.4 -17.8°
Reaches altitude 10° 21:51:10 10° 261° (W) 1,492 -0.9 -17.9°
Enters shadow 21:52:10 14° 246° (WSW) 1,251 -1.5 -17.9°
